{"data":{"norad_id":59051,"epoch":"2026-05-25T04:21:27.420768Z","epoch_age_seconds":59383,"freshness":"FRESH","line1":"1 59051U 24039A   26145.18156737  .00000011  00000+0  24496-4 0  9994","line2":"2 59051  98.7000 104.7707 0006080 231.2887 128.7748 14.22426841115993","mean_motion":14.22426841,"eccentricity":0.000608,"inclination_deg":98.7,"raan_deg":104.7707,"arg_perigee_deg":231.2887,"mean_anomaly_deg":128.7748,"bstar":2.4496e-5,"rev_number":11599,"period_min":101.23543499697,"perigee_km":812.78234200423,"apogee_km":821.53181960649,"semimajor_km":7195.2940808054,"source":"CELESTRAK","updated_at":"2026-05-25T13:38:13.041684Z"}}